TUBIN
1 48900U 21059X   25251.61682562  .00067394  00000-0  56903-3 0  9994
2 48900  97.6771  68.8285 0002814 247.2199 112.8765 15.69571994234270
LEDSAT
1 49069U 21073D   25251.20712837  .00201992  00000-0  11337-2 0  9996
2 49069  97.3787 337.4414 0003757 123.0953 237.0675 15.78706007225631
CUTE
1 49263U 21088D   25251.25811118  .00020479  00000-0  35147-3 0  9990
2 49263  97.4436 330.3724 0005131 255.3883 104.6800 15.51190835218463
TeikyoSat 4
1 49396U 21102B   25251.60172431  .00002057  00000-0  13742-3 0  9990
2 49396  97.4032 286.7327 0012610 173.9873 186.1509 15.08004731210261
Z-Sat
1 49399U 21102E   25251.58329406  .00005186  00000-0  27888-3 0  9998
2 49399  97.3729 290.3908 0018945 144.3279 215.9224 15.15139609210751
KOSEN 1
1 49402U 21102H   25251.60116119  .00007914  00000-0  35360-3 0  9996
2 49402  97.3625 294.5326 0017109 118.3159 241.9805 15.21470733211129
HO-113
1 50466U 21131B   25251.59249387  .00000714  00000-0  23622-3 0  9991
2 50466  98.5084 340.4968 0003596 208.7677 151.3314 14.40915547194553
SNUGLITE 2
1 52899U 22065F   25251.63951928  .00001537  00000-0  30617-3 0  9992
2 52899  98.1818  32.7998 0007566 179.0647 181.0571 14.63426880169805
UmKA 1 (RS40S)
1 57172U 23091G   25251.57396768  .00006901  00000-0  35822-3 0  9992
2 57172  97.5494 306.4960 0014454  25.8192 334.3760 15.16355902121260
CubeBel-2 (EU11S)
1 57175U 23091K   25251.61261891  .00010404  00000-0  47165-3 0  9994
2 57175  97.5494 308.2720 0012104  32.5778 327.6202 15.20966986121386
ENSO
1 58470U 23185J   25251.59937483  .00125052  00000-0  10861-2 0  9999
2 58470  97.3638 330.3042 0004401 122.5082 237.6605 15.68687369 99237
SONATE-2
1 59112U 24043Q   25251.63483922  .00022235  00000-0  57939-3 0  9993
2 59112  97.5249  24.8782 0010809 146.2404 213.9532 15.38817836 84328
MO-122
1 60209U 24125G   25251.55784428  .00024205  00000-0  61728-3 0  9999
2 60209  97.2682 102.3010 0017813 164.6457 195.5333 15.39351655 65938
GRBBeta
1 60237U 24128C   25251.35026023  .00005144  00000-0  37864-3 0  9996
2 60237  61.9906 122.9042 0056625  77.1555 283.5855 15.03408791 63840
Curium One
1 60242U 24128H   25251.35551217  .00008642  00000-0  57577-3 0  9999
2 60242  61.9804 119.7307 0056441  73.9328 286.7970 15.06460574 63909
ROBUSTA-3A
1 60243U 24128J   25251.12230225  .00009015  00000-0  60913-3 0  9991
2 60243  61.9875 121.6953 0055832  71.3905 289.3239 15.05927820 63855
CatSat
1 60246U 24125J   25251.32357880  .00023405  00000-0  71541-3 0  9998
2 60246  97.2495 100.2081 0041495 129.2244 231.2694 15.33003102 63874
HYPERVIEW-1G (RS66S)
1 61772U 24199AP  25251.61702920  .00028232  00000-0  72284-3 0  9993
2 61772  97.3376 120.4388 0011169 217.1888 142.8585 15.39302776 90947
AO-123
1 61781U 24199AY  25251.61955345  .00007938  00000-0  27891-3 0  9998
2 61781  97.3401 118.2150 0013916 230.4987 129.5023 15.29559122 90798
ZIMSAT 2
1 61783U 24199BA  25251.60288759  .00059865  00000-0  11379-2 0  9996
2 61783  97.3335 121.9140 0010379 206.7093 153.3624 15.48003542 94191
HADES-R (SO-124)
1 62690U 25009CK  25251.45921613  .00058007  00000-0  16375-2 0  9999
2 62690  97.4029 332.2738 0003081 145.7360 214.4083 15.36170938 36062
HYDRA-T
1 62692U 25009CM  25251.48988676  .00060303  00000-0  16772-2 0  9999
2 62692  97.4033 332.3856 0002830 141.2948 218.8500 15.36626277 36070
JINJUSat 1B
1 63210U 25052A   25251.61542552  .00013780  00000-0  59439-3 0  9993
2 63210  97.4279 144.6358 0004762  33.9423 326.2117 15.22647550 27093
NUSHSAT 1
1 63211U 25052B   25251.59081476  .00016311  00000-0  69322-3 0  9999
2 63211  97.4270 144.6446 0004944  37.7975 322.3608 15.23111998 27094
TEVEL2-4
1 63213U 25052D   25251.62467563  .00014664  00000-0  63105-3 0  9992
2 63213  97.4185 144.4089 0004813  55.1906 304.9783 15.22710423 27092
TEVEL2-5
1 63214U 25052E   25251.49542431  .00014224  00000-0  61297-3 0  9998
2 63214  97.4189 144.2767 0004775  55.2643 304.9043 15.22670460 27077
TEVEL2-6
1 63215U 25052F   25251.63138490  .00014822  00000-0  63927-3 0  9997
2 63215  97.4184 144.4032 0004892  55.8514 304.3186 15.22634288 27095
TEVEL2-1
1 63217U 25052H   25251.26190301  .00014461  00000-0  62863-3 0  9994
2 63217  97.4164 143.9235 0005336  63.4785 296.6998 15.22368262 27037
TEVEL2-3
1 63218U 25052J   25251.45918824  .00014661  00000-0  63700-3 0  9997
2 63218  97.4166 144.1198 0005411  63.6268 296.5523 15.22381768 27065
TEVEL2-2
1 63219U 25052K   25251.45978684  .00014647  00000-0  63665-3 0  9992
2 63219  97.4162 144.1182 0005361  63.4524 296.7261 15.22369999 27065
TEVEL2-9
1 63237U 25052AD  25251.20460908  .00013600  00000-0  61381-3 0  9991
2 63237  97.4227 143.6925 0009839  66.4601 293.7667 15.21067478 27006
TEVEL2-7
1 63238U 25052AE  25251.21119135  .00012996  00000-0  58821-3 0  9998
2 63238  97.4229 143.6880 0009919  66.3481 293.8795 15.20980397 27009
TEVEL2-8
1 63239U 25052AF  25251.60980435  .00013359  00000-0  60487-3 0  9996
2 63239  97.4226 144.0696 0009940  65.6654 294.5619 15.20961273 27066
HYDRA-W
1 63490U 25052BL  25250.22381229  .00040783  00000-0  14791-2 0  9995
2 63490  97.4179 143.6569 0013126  66.0699 294.1913 15.28143890 26923
HADES-ICM (SO-125)
1 63492U 25052BN  25251.18874903  .00034954  00000-0  12960-2 0  9998
2 63492  97.4181 144.5185 0013365  65.3259 294.9370 15.27448866 27062
